Wind_Speed
17 18 19 19 19 18 19 19 18 18 18 18 18 18 18 19 20 22 24 24 24 24 25 24 22 22 21 20 20 20 19 18 17 16 16 15 13 13 12 12 11 10 9
18 19 19 19 18 18 19 18 18 17 17 18 19 19 19 19 20 21 23 24 24 25 25 24 23 23 22 22 22 21 19 18 18 17 17 16 15 14 13 13 11 10 9
18 19 19 18 18 19 18 17 17 16 16 17 18 18 19 20 21 21 23 24 25 26 26 25 24 24 23 23 23 22 21 19 18 17 17 17 16 15 14 13 12 11 10
18 19 19 18 18 18 18 16 16 15 15 15 16 18 19 20 21 21 22 24 25 26 26 26 25 24 24 23 23 23 22 21 19 19 18 18 17 16 15 14 13 12 11
18 18 18 18 18 18 17 16 15 14 13 13 15 17 18 19 21 21 22 24 25 26 26 26 26 25 25 24 23 23 23 22 21 20 19 19 18 17 16 15 14 13 12
18 18 17 17 18 17 16 15 13 12 12 12 13 15 18 20 20 21 22 24 24 26 26 26 27 25 25 24 24 23 23 23 22 22 21 20 19 18 17 16 15 14 13
18 17 17 17 17 17 15 13 12 11 10 11 12 14 16 18 20 21 22 24 24 25 26 27 27 26 25 25 25 24 23 23 22 22 22 22 21 19 18 17 16 15 14
17 17 16 16 16 16 15 13 12 10 9 9 10 12 15 18 20 21 21 23 24 25 26 27 27 26 25 24 24 24 23 22 22 23 22 22 22 21 20 18 17 16 15
17 17 16 16 16 15 14 13 11 9 7 6 8 10 13 16 18 20 21 22 24 24 24 26 27 26 25 25 24 24 24 23 22 23 23 23 23 22 21 20 19 17 17
17 17 16 16 15 14 13 12 10 7 5 4 6 9 12 15 17 19 20 22 23 24 24 26 26 25 25 25 25 24 24 24 23 22 23 23 24 23 23 21 20 19 18
17 17 16 16 15 14 12 11 9 7 4 3 4 7 10 13 15 17 18 21 23 24 24 25 26 25 25 25 25 25 25 24 23 22 22 23 23 24 24 23 22 21 20
16 16 16 15 15 14 12 10 9 7 4 2 3 6 9 12 13 16 17 19 21 23 24 25 25 24 25 24 24 24 24 24 24 23 23 23 23 24 24 23 23 22 21
15 15 15 15 14 13 12 10 8 7 5 1 2 5 7 10 12 14 16 18 20 22 22 24 24 25 25 24 24 24 24 24 24 24 23 24 24 24 24 24 23 23 23
15 15 15 15 14 13 12 10 8 7 4 2 1 4 6 9 11 13 15 17 18 20 21 23 24 25 25 24 24 24 24 24 23 23 23 23 24 24 24 24 24 24 24
15 15 14 14 14 13 11 11 9 7 5 3 2 3 5 8 10 13 14 16 17 18 19 21 23 24 25 25 25 25 24 24 24 24 24 23 24 24 24 24 25 25 25
15 15 14 14 14 13 11 10 10 8 6 4 2 2 4 7 9 12 13 15 16 17 19 21 22 23 25 25 25 25 25 25 25 25 25 25 24 24 25 24 24 25 26
16 15 14 14 14 13 12 11 10 9 7 5 4 3 4 6 9 10 12 13 15 17 19 19 21 22 23 24 25 25 26 26 26 26 26 25 25 25 25 26 26 25 26
16 16 15 14 14 13 12 11 10 9 8 6 5 4 5 7 8 9 11 12 14 15 17 18 20 21 23 24 24 24 25 25 25 26 26 26 26 26 27 27 27 27 27
17 16 16 15 14 13 12 12 11 10 9 8 6 6 6 7 9 10 11 12 13 14 16 17 18 19 21 23 23 24 24 24 25 25 26 26 27 27 27 27 28 28 28
18 17 17 16 15 14 13 13 12 11 10 9 8 7 7 8 9 10 11 12 13 14 15 16 17 18 18 21 22 23 23 24 25 25 26 26 27 28 28 28 28 28 28
20 19 18 18 17 16 15 14 14 13 12 11 10 10 9 9 9 10 11 12 14 14 15 17 17 18 18 19 21 23 24 25 26 26 26 26 27 27 28 27 27 28 29
21 21 20 20 19 19 18 17 16 15 14 13 12 12 11 11 11 11 12 13 14 15 16 17 18 19 20 19 21 22 24 24 25 26 27 27 28 28 28 28 28 28 29
24 24 23 23 22 21 21 20 19 18 17 16 15 14 14 13 14 14 13 14 15 16 17 17 18 19 20 21 21 22 23 24 24 26 26 27 27 27 27 28 28 29 29
26 26 26 26 25 24 23 23 22 21 20 19 18 17 17 16 16 16 16 16 16 16 17 18 18 19 20 21 21 21 22 23 23 24 25 26 26 27 27 27 27 28 30
30 29 29 29 28 28 27 26 25 24 24 23 22 21 20 19 19 19 19 18 18 18 18 18 18 19 20 20 21 22 22 22 22 23 24 24 25 25 25 26 27 27 27
33 33 32 32 31 31 31 30 29 28 27 26 25 24 23 22 21 21 21 21 21 20 20 20 20 20 20 21 21 22 22 22 22 22 23 23 23 24 24 24 25 25 26
Wind_Direction
316 316 315 313 310 306 302 298 292 284 277 268 257 249 242 234 226 221 217 216 214 213 211 209 209 207 205 203 201 200 197 198 198 197 195 194 193 191 188 185 180 178 175
318 318 317 316 313 309 305 300 293 285 277 267 256 247 239 232 224 219 217 214 213 211 210 208 208 207 204 203 201 199 198 198 200 201 198 197 196 193 193 192 188 187 186
320 320 319 318 315 312 309 304 295 287 278 268 255 245 235 229 223 220 217 214 213 211 209 208 207 206 205 203 201 200 200 200 201 200 199 199 199 197 196 196 195 195 195
323 322 322 321 319 316 311 307 299 290 279 268 254 243 232 225 222 220 216 213 211 209 208 207 206 205 203 203 202 201 202 202 202 201 201 201 201 201 201 201 201 201 202
325 325 324 324 323 321 316 310 303 293 279 267 254 242 231 224 222 219 215 210 208 207 208 208 206 203 204 203 203 203 203 204 205 203 203 203 203 204 204 204 206 207 208
329 327 327 327 329 327 323 316 308 297 281 267 254 240 229 224 220 217 213 208 207 208 208 206 204 204 203 203 204 205 204 205 204 205 206 206 206 205 206 208 210 211 211
333 332 331 332 334 333 331 325 316 303 287 269 253 238 225 221 217 213 211 208 208 208 208 205 203 204 204 203 204 206 204 206 206 207 207 207 208 208 209 210 213 213 213
335 335 335 335 337 337 335 330 323 311 291 270 251 233 220 217 213 211 209 208 208 208 205 204 204 206 205 204 205 206 206 206 207 208 208 208 209 210 212 214 216 217 217
338 338 338 338 339 340 340 337 331 322 301 274 249 228 215 211 207 208 209 207 206 206 204 203 204 205 207 207 207 208 209 208 211 211 211 211 212 213 215 217 217 218 220
340 342 342 342 342 343 344 345 342 333 312 277 240 220 212 209 208 208 210 209 206 207 205 202 203 205 206 207 207 209 209 210 213 214 213 215 216 217 217 218 219 220 221
342 343 346 345 346 347 348 351 350 348 331 279 233 214 208 207 207 209 210 210 209 208 207 205 206 208 208 209 209 210 211 210 213 215 214 217 219 220 219 220 222 223 224
344 346 350 349 349 351 352 353 354 357 355 316 230 209 206 206 208 206 207 208 209 209 208 207 207 209 209 209 209 210 211 212 216 218 220 221 221 221 220 222 224 226 227
344 348 351 352 352 353 356 357 358 358 358 334 217 206 206 207 208 206 207 209 210 209 210 209 210 211 209 209 210 211 213 215 218 221 223 223 223 222 223 224 225 226 229
342 345 349 351 353 354 356 359 0 360 360 345 257 219 213 209 209 207 206 208 211 211 211 211 212 211 211 212 214 215 216 217 220 222 224 223 225 224 224 226 228 229 231
337 341 344 346 349 351 353 355 357 358 2 357 299 238 222 213 213 209 209 208 209 210 212 211 212 213 213 214 215 215 218 220 222 224 225 225 225 225 227 230 232 234 236
331 333 338 341 342 346 349 350 352 350 344 337 318 262 230 220 215 213 213 210 211 213 213 212 213 215 215 216 217 219 221 223 225 227 228 228 227 229 230 232 236 237 240
326 326 328 333 335 337 340 342 343 344 342 338 316 270 239 227 220 217 215 214 213 215 216 216 217 217 217 218 221 223 224 226 228 228 229 229 228 230 233 235 238 239 242
321 321 321 323 326 327 329 332 333 332 333 327 312 277 254 240 229 223 218 216 216 219 219 219 218 219 220 222 224 225 227 226 227 228 229 230 232 235 237 238 240 242 245
316 316 314 315 317 317 317 319 322 321 320 318 310 287 264 250 239 234 224 221 223 224 222 221 220 221 222 224 225 228 229 229 231 232 232 234 235 237 239 240 242 245 247
310 310 308 307 308 309 308 307 308 308 306 304 299 293 276 259 249 240 230 227 226 227 226 224 224 223 223 226 228 229 231 232 233 235 236 238 238 240 242 242 243 247 248
305 304 303 301 300 299 300 299 297 297 295 293 288 287 279 264 252 244 236 234 232 230 229 228 228 228 229 231 231 232 234 236 237 237 238 240 241 241 243 245 247 248 250
302 300 297 295 294 292 291 290 289 287 286 284 281 278 274 265 254 248 244 240 237 236 235 233 233 233 234 233 234 235 237 238 239 239 240 241 243 244 246 248 249 250 251
298 296 294 291 289 287 285 284 283 281 278 276 274 272 269 265 256 251 248 244 241 240 240 240 239 237 236 236 237 238 240 241 242 242 242 242 244 245 246 248 250 252 253
294 292 290 289 286 283 280 278 278 276 274 271 268 268 267 262 258 254 250 247 246 244 242 242 242 239 238 239 240 241 241 242 243 243 243 244 245 247 248 249 251 253 256
291 289 287 285 283 280 277 275 273 272 270 268 265 264 263 260 257 254 252 250 248 246 244 244 243 242 242 242 243 243 243 243 243 245 245 246 247 248 250 252 254 256 257
289 287 284 282 280 277 275 272 270 269 267 265 263 261 260 258 257 254 252 250 249 247 246 246 246 245 244 243 244 244 244 244 245 246 247 248 250 252 254 256 257 258 260
Height
5835 5833 5830 5827 5824 5822 5819 5817 5816 5814 5813 5813 5813 5815 5816 5818 5820 5823 5826 5830 5833 5837 5840 5843 5846 5850 5853 5856 5859 5862 5864 5867 5870 5872 5874 5877 5879 5881 5883 5885 5886 5888 5889
5832 5830 5826 5824 5821 5818 5815 5813 5811 5810 5809 5808 5809 5810 5812 5814 5816 5819 5822 5826 5830 5833 5837 5840 5844 5847 5850 5853 5856 5859 5862 5865 5868 5871 5873 5876 5878 5880 5882 5884 5886 5888 5890
5829 5826 5823 5820 5817 5814 5811 5809 5807 5805 5804 5803 5804 5805 5807 5810 5813 5816 5819 5822 5826 5830 5834 5837 5841 5844 5847 5851 5854 5857 5860 5863 5866 5869 5872 5874 5877 5879 5881 5883 5885 5887 5889
5826 5823 5820 5817 5814 5810 5807 5805 5803 5801 5800 5799 5799 5801 5803 5806 5809 5812 5815 5818 5822 5826 5830 5834 5838 5841 5845 5848 5851 5855 5858 5861 5864 5867 5870 5873 5876 5878 5880 5882 5884 5886 5888
5824 5820 5817 5814 5810 5807 5804 5801 5799 5797 5796 5795 5796 5797 5799 5802 5805 5808 5812 5815 5819 5823 5827 5831 5834 5838 5842 5845 5849 5852 5855 5859 5862 5865 5868 5871 5874 5877 5879 5881 5883 5885 5887
5821 5818 5814 5811 5808 5804 5801 5798 5796 5794 5793 5792 5792 5794 5796 5798 5802 5805 5808 5812 5815 5819 5823 5827 5832 5835 5839 5843 5846 5849 5853 5856 5859 5863 5866 5869 5872 5875 5877 5880 5882 5884 5886
5819 5815 5812 5809 5805 5802 5799 5796 5793 5791 5790 5789 5790 5791 5793 5795 5798 5802 5805 5809 5812 5816 5820 5824 5828 5832 5836 5840 5843 5847 5850 5853 5856 5860 5863 5867 5870 5873 5876 5878 5880 5882 5884
5817 5814 5810 5807 5804 5800 5797 5794 5791 5789 5787 5787 5787 5788 5790 5793 5795 5799 5802 5806 5809 5813 5817 5821 5825 5829 5833 5837 5840 5844 5847 5850 5854 5857 5861 5864 5867 5870 5873 5876 5878 5880 5882
5815 5812 5808 5805 5802 5799 5795 5792 5789 5787 5786 5785 5785 5786 5788 5790 5793 5797 5799 5803 5806 5810 5814 5818 5822 5827 5830 5834 5837 5841 5845 5848 5851 5854 5858 5861 5864 5867 5870 5873 5876 5878 5880
5814 5811 5807 5804 5801 5798 5794 5791 5789 5786 5785 5784 5784 5785 5786 5788 5791 5795 5797 5800 5804 5808 5811 5816 5820 5824 5827 5831 5834 5838 5842 5845 5849 5851 5855 5858 5861 5864 5867 5870 5873 5875 5878
5813 5810 5806 5803 5800 5797 5794 5791 5789 5787 5785 5784 5784 5784 5786 5788 5790 5793 5795 5799 5802 5805 5809 5813 5817 5821 5824 5828 5831 5835 5839 5843 5846 5849 5852 5855 5858 5861 5864 5867 5869 5872 5875
5813 5809 5806 5803 5799 5797 5794 5791 5789 5787 5786 5785 5785 5785 5786 5787 5789 5791 5794 5797 5800 5803 5807 5811 5814 5818 5821 5825 5829 5832 5836 5840 5843 5846 5849 5851 5854 5857 5860 5863 5866 5868 5871
5812 5809 5806 5802 5800 5797 5794 5792 5789 5788 5786 5786 5785 5786 5786 5787 5789 5791 5793 5795 5798 5801 5805 5808 5812 5815 5819 5822 5826 5829 5833 5836 5839 5842 5845 5847 5850 5853 5856 5859 5862 5864 5867
5812 5809 5806 5803 5800 5797 5795 5792 5790 5789 5787 5786 5786 5786 5786 5787 5788 5790 5792 5794 5797 5799 5802 5806 5809 5812 5816 5819 5823 5826 5830 5833 5836 5839 5841 5844 5846 5849 5852 5855 5858 5860 5862
5811 5809 5806 5803 5800 5798 5795 5793 5791 5789 5788 5787 5786 5786 5786 5787 5787 5789 5790 5792 5795 5798 5801 5803 5806 5809 5813 5816 5819 5823 5826 5829 5832 5835 5837 5840 5842 5845 5848 5851 5853 5855 5857
5811 5808 5806 5803 5800 5798 5796 5793 5792 5790 5788 5787 5787 5786 5786 5786 5787 5788 5789 5791 5793 5795 5798 5800 5803 5806 5809 5813 5816 5819 5822 5825 5828 5831 5833 5836 5838 5841 5844 5846 5848 5850 5853
5810 5807 5805 5802 5800 5798 5796 5794 5792 5790 5789 5787 5787 5786 5786 5786 5786 5787 5788 5789 5791 5793 5795 5798 5800 5803 5806 5809 5812 5815 5818 5820 5823 5826 5828 5831 5834 5836 5838 5841 5843 5845 5847
5808 5806 5804 5801 5799 5797 5795 5793 5792 5790 5789 5787 5786 5786 5785 5785 5786 5786 5787 5788 5790 5791 5793 5795 5797 5800 5803 5805 5808 5811 5813 5816 5818 5821 5823 5826 5828 5831 5833 5835 5837 5839 5841
5806 5804 5802 5800 5798 5796 5794 5793 5791 5789 5788 5787 5786 5785 5784 5784 5784 5785 5785 5786 5788 5789 5790 5792 5794 5796 5799 5801 5804 5806 5808 5811 5813 5815 5818 5820 5823 5825 5827 5829 5831 5833 5835
5803 5801 5800 5798 5796 5794 5793 5791 5790 5788 5787 5786 5785 5784 5783 5782 5782 5783 5783 5784 5785 5786 5788 5789 5791 5793 5795 5797 5799 5801 5804 5806 5808 5810 5812 5814 5816 5819 5821 5822 5825 5827 5829
5800 5798 5797 5795 5793 5792 5790 5789 5788 5786 5785 5784 5783 5782 5781 5780 5780 5781 5781 5782 5782 5784 5785 5786 5788 5789 5791 5793 5794 5796 5798 5800 5802 5804 5806 5808 5811 5813 5814 5816 5818 5820 5821
5796 5794 5793 5791 5790 5789 5787 5786 5785 5783 5782 5781 5781 5780 5779 5779 5778 5778 5779 5779 5779 5780 5781 5783 5784 5785 5786 5788 5789 5791 5793 5795 5797 5799 5800 5802 5804 5806 5808 5810 5811 5813 5814
5791 5789 5788 5786 5785 5784 5783 5782 5780 5780 5779 5778 5777 5777 5776 5776 5775 5775 5775 5776 5776 5777 5778 5778 5779 5780 5781 5783 5784 5785 5787 5789 5790 5792 5794 5796 5797 5799 5801 5802 5804 5805 5806
5785 5784 5782 5781 5779 5778 5777 5776 5775 5774 5774 5773 5773 5772 5772 5772 5772 5772 5772 5772 5772 5773 5773 5774 5775 5775 5776 5777 5778 5780 5781 5782 5784 5785 5787 5789 5791 5792 5794 5795 5796 5797 5798
5778 5776 5775 5774 5772 5771 5770 5769 5768 5768 5768 5768 5767 5767 5767 5767 5767 5767 5767 5767 5767 5768 5768 5769 5770 5770 5771 5772 5773 5774 5775 5777 5778 5779 5781 5782 5784 5785 5786 5788 5789 5790 5791
5769 5768 5767 5765 5764 5763 5763 5762 5761 5760 5760 5760 5761 5761 5761 5761 5761 5761 5761 5762 5762 5763 5763 5764 5764 5765 5766 5766 5767 5768 5769 5771 5772 5774 5775 5776 5777 5778 5780 5781 5781 5782 5783